Location: Catstown
(52.4386°N, 7.2633°W)
Time: 04:30:52
(UTC+00:00)

USA 234 - Pass Details

Date: 18 September 2020
Orbit: 1102 x 1106 km, 123.0° (Epoch: 16 October)

Event Time Altitude Azimuth Distance (km) Brightness Sun altitude
Exits shadow 20:19:21 - 62° (ENE) 3,597 5.6 -16.1°
Reaches altitude 10° 20:21:09 10° 68° (ENE) 2,968 5.1 -16.3°
Maximum altitude 20:27:11 38° 135° (SE) 1,616 3.7 -17.1°
Drops below altitude 10° 20:33:12 10° 202° (SSW) 2,957 5.5 -18.0°
Sets 20:35:53 0° 210° (SSW) 3,913 6.2 -18.3°
